Location: Altenst�hlen
(53.5567°N, 8.9425°E)
Time: 22:26:05
(UTC+00:00)

STARLINK-72 - Visible Passes

Search period start: 27 January 2020 00:00
Search period end: 06 February 2020 00:00
Orbit: 529 x 530 km, 53.0° (Epoch: 27 January)

Date Brightness Start Highest point End Pass type
(mag) Time Alt. Az. Time Alt. Az. Time Alt. Az.
27 Jan 5.9 03:45:06 22° E 03:45:06 22° E 03:46:46 10° E visible
27 Jan 3.5 05:20:21 36° WSW 05:21:54 80° S 05:25:57 10° E visible
28 Jan 6.2 03:33:38 18° E 03:33:38 18° E 03:34:49 10° E visible
28 Jan 3.5 05:08:52 48° WSW 05:09:56 82° S 05:13:58 10° E visible
29 Jan 6.5 03:22:08 15° E 03:22:08 15° E 03:22:52 10° E visible
29 Jan 3.4 04:57:22 63° WSW 04:57:58 83° S 05:02:01 10° E visible
29 Jan 3.8 06:33:03 10° W 06:37:04 65° SSW 06:41:03 10° ESE visible
30 Jan 6.8 03:10:38 12° E 03:10:38 12° E 03:10:57 10° E visible
30 Jan 3.4 04:45:52 80° SW 04:46:02 84° S 04:50:05 10° E visible
30 Jan 3.9 06:21:07 10° W 06:25:06 60° SSW 06:29:05 10° ESE visible
31 Jan 3.6 04:34:23 77° ESE 04:34:23 77° ESE 04:38:10 10° E visible
31 Jan 3.9 06:09:37 13° W 06:13:10 56° SSW 06:17:07 10° ESE visible
01 Feb 4.0 04:22:55 60° ESE 04:22:55 60° ESE 04:26:16 10° E visible
01 Feb 4.0 05:58:09 15° W 06:01:15 51° SSW 06:05:09 10° SE visible
02 Feb 4.5 04:11:29 46° ESE 04:11:29 46° ESE 04:14:23 10° E visible
02 Feb 4.1 05:46:43 19° W 05:49:20 46° SSW 05:53:12 10° SE visible
03 Feb 5.0 04:00:04 35° ESE 04:00:04 35° ESE 04:02:31 10° E visible
03 Feb 4.2 05:35:19 23° W 05:37:25 42° SSW 05:41:14 10° SE visible
04 Feb 5.5 03:48:43 27° ESE 03:48:43 27° ESE 03:50:40 10° ESE visible
04 Feb 4.3 05:23:58 26° WSW 05:25:32 38° SSW 05:29:17 10° SE visible
05 Feb 5.9 03:37:26 21° ESE 03:37:26 21° ESE 03:38:50 10° ESE visible
05 Feb 4.4 05:12:40 30° WSW 05:13:40 34° SSW 05:17:19 10° SE visible
